Location: Unspecified
(50.0830°N, 0.0000°E)
Time: 10:16:54
(UTC+00:00)

N. Korean satellite - Pass Details

Date: 18 November 2019
Orbit: 456 x 506 km, 97.2° (Epoch: 08 December)

Event Time Altitude Azimuth Distance (km) Brightness Sun altitude
Rises 06:31:27 0° 7° (N) 2,624 10.1 -7.5°
Reaches altitude 10° 06:33:37 10° 1° (N) 1,732 9.2 -7.1°
Maximum altitude 06:37:10 43° 289° (WNW) 725 7.0 -6.6°
Drops below altitude 10° 06:40:39 10° 218° (SW) 1,703 9.2 -6.1°
Sets 06:42:46 0° 211° (SSW) 2,574 10.2 -5.8°
